Time,TemperatureF,DewpointF,PressureIn,WindDirection,WindDirectionDegrees,WindSpeedMPH,WindSpeedGustMPH,Humidity,HourlyPrecipIn,Conditions,Clouds,dailyrainin,SoftwareType,DateUTC
2013-06-05 00:02:00,64.0,48.0,29.85,East,90,0.0,2.0,57,0.00,,,0.00,,2013-06-05 07:02:00,
2013-06-05 00:12:00,64.0,48.0,29.85,East,90,0.0,2.0,57,0.00,,,0.00,,2013-06-05 07:12:00,
2013-06-05 00:22:00,63.0,48.0,29.85,NNW,338,4.0,4.0,58,0.00,,,0.00,,2013-06-05 07:22:00,
2013-06-05 00:32:00,63.0,48.0,29.85,WNW,293,0.0,4.0,58,0.00,,,0.00,,2013-06-05 07:32:00,
2013-06-05 00:42:00,63.0,48.0,29.85,WNW,293,0.0,4.0,58,0.00,,,0.00,,2013-06-05 07:42:00,
2013-06-05 00:52:00,63.0,48.0,29.85,NNW,338,3.0,3.0,58,0.00,,,0.00,,2013-06-05 07:52:00,
2013-06-05 01:02:00,62.0,48.0,29.86,NNW,327,4.0,4.0,60,0.00,,,0.00,,2013-06-05 08:02:00,
2013-06-05 01:12:00,62.0,48.0,29.86,NNW,327,4.0,4.0,60,0.00,,,0.00,,2013-06-05 08:12:00,
2013-06-05 01:22:00,62.0,48.0,29.86,NNW,338,0.0,1.0,61,0.00,,,0.00,,2013-06-05 08:22:00,
2013-06-05 01:32:00,61.0,48.0,29.87,NNE,23,2.0,5.0,62,0.00,,,0.00,,2013-06-05 08:32:00,
2013-06-05 01:42:00,61.0,48.0,29.87,NNE,23,2.0,5.0,62,0.00,,,0.00,,2013-06-05 08:42:00,
2013-06-05 01:52:00,61.0,48.0,29.87,WSW,248,0.0,0.0,62,0.00,,,0.00,,2013-06-05 08:52:00,
2013-06-05 02:02:00,61.0,48.0,29.87,WSW,248,0.0,0.0,62,0.00,,,0.00,,2013-06-05 09:02:00,
2013-06-05 02:11:00,61.0,48.0,29.87,WSW,248,0.0,0.0,62,0.00,,,0.00,,2013-06-05 09:11:00,
2013-06-05 02:22:00,61.0,48.0,29.87,WSW,248,0.0,0.0,62,0.00,,,0.00,,2013-06-05 09:22:00,
2013-06-05 02:33:00,59.0,47.0,29.87,East,90,0.0,2.0,65,0.00,,,0.00,,2013-06-05 09:33:00,
2013-06-05 02:43:00,59.0,47.0,29.87,East,90,0.0,2.0,65,0.00,,,0.00,,2013-06-05 09:43:00,
2013-06-05 02:53:00,59.0,47.0,29.87,East,90,0.0,2.0,65,0.00,,,0.00,,2013-06-05 09:53:00,
2013-06-05 03:02:00,58.0,47.0,29.87,NNW,338,6.0,6.0,66,0.00,,,0.00,,2013-06-05 10:02:00,
2013-06-05 03:12:00,58.0,47.0,29.87,NNW,338,6.0,6.0,66,0.00,,,0.00,,2013-06-05 10:12:00,
2013-06-05 03:22:00,58.0,47.0,29.87,NNW,338,6.0,6.0,66,0.00,,,0.00,,2013-06-05 10:22:00,
2013-06-05 03:33:00,58.0,47.0,29.87,NNW,338,6.0,6.0,66,0.00,,,0.00,,2013-06-05 10:33:00,
2013-06-05 03:42:00,58.0,47.0,29.87,NNW,338,6.0,6.0,66,0.00,,,0.00,,2013-06-05 10:42:00,
2013-06-05 03:53:00,58.0,47.0,29.88,NNW,338,3.0,3.0,67,0.00,,,0.00,,2013-06-05 10:53:00,
2013-06-05 04:02:00,58.0,48.0,29.89,NNE,23,4.0,4.0,69,0.00,,,0.00,,2013-06-05 11:02:00,
2013-06-05 04:12:00,58.0,48.0,29.89,NNE,23,4.0,4.0,69,0.00,,,0.00,,2013-06-05 11:12:00,
2013-06-05 04:22:00,58.0,48.0,29.89,NNE,23,4.0,4.0,69,0.00,,,0.00,,2013-06-05 11:22:00,
2013-06-05 04:32:00,57.0,47.0,29.89,North,0,1.0,1.0,70,0.00,,,0.00,,2013-06-05 11:32:00,
2013-06-05 04:42:00,57.0,47.0,29.89,North,0,1.0,1.0,70,0.00,,,0.00,,2013-06-05 11:42:00,
2013-06-05 04:52:00,57.0,47.0,29.89,NNW,338,0.0,0.0,70,0.00,,,0.00,,2013-06-05 11:52:00,
2013-06-05 05:02:00,57.0,47.0,29.89,NNW,338,0.0,0.0,70,0.00,,,0.00,,2013-06-05 12:02:00,
2013-06-05 05:12:00,57.0,47.0,29.89,NNW,338,0.0,0.0,70,0.00,,,0.00,,2013-06-05 12:12:00,
2013-06-05 05:22:00,57.0,47.0,29.89,WNW,293,0.0,0.0,70,0.00,,,0.00,,2013-06-05 12:22:00,
2013-06-05 05:32:00,57.0,48.0,29.90,WNW,293,1.0,3.0,71,0.00,,,0.00,,2013-06-05 12:32:00,
2013-06-05 05:43:00,57.0,48.0,29.90,WNW,293,1.0,3.0,71,0.00,,,0.00,,2013-06-05 12:43:00,
2013-06-05 05:52:00,57.0,48.0,29.91,West,270,0.0,2.0,71,0.00,,,0.00,,2013-06-05 12:52:00,
2013-06-05 06:02:00,57.0,48.0,29.91,WNW,293,0.0,0.0,71,0.00,,,0.00,,2013-06-05 13:02:00,
2013-06-05 06:12:00,57.0,48.0,29.91,WNW,293,0.0,0.0,71,0.00,,,0.00,,2013-06-05 13:12:00,
2013-06-05 06:22:00,56.0,47.0,29.91,NNW,338,0.0,4.0,72,0.00,,,0.00,,2013-06-05 13:22:00,
2013-06-05 06:32:00,56.0,47.0,29.91,NNW,338,0.0,4.0,72,0.00,,,0.00,,2013-06-05 13:32:00,
2013-06-05 06:42:00,56.0,47.0,29.91,NNW,338,0.0,4.0,72,0.00,,,0.00,,2013-06-05 13:42:00,
2013-06-05 06:52:00,56.0,47.0,29.91,NNW,338,0.0,4.0,73,0.00,,,0.00,,2013-06-05 13:52:00,
2013-06-05 07:01:00,57.0,48.0,29.91,WNW,293,0.0,2.0,73,0.00,,,0.00,,2013-06-05 14:01:00,
2013-06-05 07:12:00,57.0,48.0,29.91,WNW,293,0.0,2.0,73,0.00,,,0.00,,2013-06-05 14:12:00,
2013-06-05 07:22:00,58.0,49.0,29.91,NNW,338,2.0,2.0,73,0.00,,,0.00,,2013-06-05 14:22:00,
2013-06-05 07:32:00,60.0,50.0,29.91,North,5,1.0,2.0,70,0.00,,,0.00,,2013-06-05 14:32:00,
2013-06-05 07:42:00,60.0,50.0,29.91,North,5,1.0,2.0,70,0.00,,,0.00,,2013-06-05 14:42:00,
2013-06-05 07:52:00,61.0,50.0,29.91,NW,315,0.0,3.0,66,0.00,,,0.00,,2013-06-05 14:52:00,
2013-06-05 08:02:00,63.0,51.0,29.92,North,0,0.0,3.0,64,0.00,,,0.00,,2013-06-05 15:02:00,
2013-06-05 08:12:00,63.0,51.0,29.92,North,0,0.0,3.0,64,0.00,,,0.00,,2013-06-05 15:12:00,
2013-06-05 08:22:00,63.0,51.0,29.92,North,0,0.0,3.0,64,0.00,,,0.00,,2013-06-05 15:22:00,
2013-06-05 08:33:00,66.0,51.0,29.92,North,0,0.0,2.0,59,0.00,,,0.00,,2013-06-05 15:33:00,
2013-06-05 08:42:00,66.0,51.0,29.92,North,0,0.0,2.0,59,0.00,,,0.00,,2013-06-05 15:42:00,
2013-06-05 08:53:00,66.0,51.0,29.92,North,0,0.0,2.0,59,0.00,,,0.00,,2013-06-05 15:53:00,
2013-06-05 09:03:00,66.0,51.0,29.93,North,0,2.0,6.0,58,0.00,,,0.00,,2013-06-05 16:03:00,
2013-06-05 09:12:00,66.0,51.0,29.93,North,0,2.0,6.0,58,0.00,,,0.00,,2013-06-05 16:12:00,
2013-06-05 09:22:00,66.0,51.0,29.92,NNW,338,6.0,6.0,58,0.00,,,0.00,,2013-06-05 16:22:00,
2013-06-05 09:32:00,66.0,50.0,29.93,WNW,293,2.0,6.0,57,0.00,,,0.00,,2013-06-05 16:32:00,
2013-06-05 09:42:00,68.0,52.0,29.93,NW,315,0.0,5.0,56,0.00,,,0.00,,2013-06-05 16:42:00,
2013-06-05 09:53:00,68.0,52.0,29.93,NW,315,0.0,5.0,56,0.00,,,0.00,,2013-06-05 16:53:00,
2013-06-05 10:02:00,68.0,51.0,29.93,North,0,4.0,4.0,54,0.00,,,0.00,,2013-06-05 17:02:00,
2013-06-05 10:12:00,68.0,51.0,29.93,North,0,4.0,4.0,54,0.00,,,0.00,,2013-06-05 17:12:00,
2013-06-05 10:22:00,69.0,51.0,29.92,NNW,338,4.0,4.0,53,0.00,,,0.00,,2013-06-05 17:22:00,
2013-06-05 10:32:00,71.0,51.0,29.92,North,355,2.0,4.0,49,0.00,,,0.00,,2013-06-05 17:32:00,
2013-06-05 10:42:00,72.0,51.0,29.92,North,0,2.0,2.0,48,0.00,,,0.00,,2013-06-05 17:42:00,
2013-06-05 10:52:00,72.0,51.0,29.92,North,0,2.0,2.0,48,0.00,,,0.00,,2013-06-05 17:52:00,
2013-06-05 11:02:00,74.0,52.0,29.91,NNW,338,0.0,6.0,47,0.00,,,0.00,,2013-06-05 18:02:00,
2013-06-05 11:12:00,74.0,52.0,29.91,NNW,338,0.0,6.0,47,0.00,,,0.00,,2013-06-05 18:12:00,
2013-06-05 11:22:00,75.0,52.0,29.91,NW,315,6.0,6.0,45,0.00,,,0.00,,2013-06-05 18:22:00,
2013-06-05 11:32:00,77.0,52.0,29.91,NNW,338,0.0,4.0,42,0.00,,,0.00,,2013-06-05 18:32:00,
2013-06-05 11:42:00,78.0,53.0,29.91,NNW,338,4.0,4.0,42,0.00,,,0.00,,2013-06-05 18:42:00,
2013-06-05 11:52:00,78.0,53.0,29.91,NNW,338,4.0,4.0,42,0.00,,,0.00,,2013-06-05 18:52:00,
2013-06-05 12:02:00,79.0,52.0,29.90,North,0,3.0,4.0,39,0.00,,,0.00,,2013-06-05 19:02:00,
2013-06-05 12:12:00,79.0,52.0,29.90,North,0,3.0,4.0,39,0.00,,,0.00,,2013-06-05 19:12:00,
2013-06-05 12:23:00,79.0,52.0,29.90,North,0,3.0,4.0,39,0.00,,,0.00,,2013-06-05 19:23:00,
2013-06-05 12:32:00,82.0,53.0,29.90,North,0,3.0,4.0,37,0.00,,,0.00,,2013-06-05 19:32:00,
2013-06-05 12:42:00,82.0,53.0,29.90,North,0,3.0,4.0,37,0.00,,,0.00,,2013-06-05 19:42:00,
2013-06-05 12:52:00,84.0,53.0,29.89,NNW,338,3.0,5.0,35,0.00,,,0.00,,2013-06-05 19:52:00,
2013-06-05 13:02:00,85.0,54.0,29.89,NNW,343,6.0,6.0,35,0.00,,,0.00,,2013-06-05 20:02:00,
2013-06-05 13:12:00,85.0,53.0,29.88,NNW,338,4.0,6.0,34,0.00,,,0.00,,2013-06-05 20:12:00,
2013-06-05 13:32:00,87.0,54.0,29.88,NNW,338,0.0,4.0,32,0.00,,,0.00,,2013-06-05 20:32:00,
2013-06-05 13:42:00,88.0,54.0,29.87,NNW,338,3.0,3.0,32,0.00,,,0.00,,2013-06-05 20:42:00,
2013-06-05 13:52:00,88.0,54.0,29.87,NNW,338,3.0,3.0,32,0.00,,,0.00,,2013-06-05 20:52:00,
2013-06-05 14:02:00,89.0,55.0,29.87,NNE,23,3.0,3.0,32,0.00,,,0.00,,2013-06-05 21:02:00,
2013-06-05 14:33:00,92.0,55.0,29.85,NNW,338,6.0,6.0,29,0.00,,,0.00,,2013-06-05 21:33:00,
2013-06-05 14:43:00,92.0,54.0,29.85,NNW,338,0.0,6.0,28,0.00,,,0.00,,2013-06-05 21:43:00,
2013-06-05 14:53:00,92.0,54.0,29.85,NNW,338,0.0,6.0,28,0.00,,,0.00,,2013-06-05 21:53:00,
2013-06-05 15:02:00,95.0,55.0,29.84,NW,315,4.0,4.0,26,0.00,,,0.00,,2013-06-05 22:02:00,
2013-06-05 15:32:00,98.0,54.0,29.83,ESE,113,1.0,6.0,23,0.00,,,0.00,,2013-06-05 22:32:00,
2013-06-05 15:42:00,99.0,55.0,29.83,North,0,2.0,5.0,23,0.00,,,0.00,,2013-06-05 22:42:00,
2013-06-05 15:52:00,99.0,55.0,29.83,North,0,2.0,5.0,23,0.00,,,0.00,,2013-06-05 22:52:00,
2013-06-05 16:02:00,99.0,55.0,29.83,North,0,2.0,5.0,23,0.00,,,0.00,,2013-06-05 23:02:00,
2013-06-05 16:12:00,100.0,53.0,29.82,North,0,7.0,7.0,21,0.00,,,0.00,,2013-06-05 23:12:00,
2013-06-05 16:22:00,100.0,53.0,29.82,North,0,7.0,7.0,21,0.00,,,0.00,,2013-06-05 23:22:00,
2013-06-05 16:32:00,100.0,53.0,29.81,NW,315,0.0,4.0,21,0.00,,,0.00,,2013-06-05 23:32:00,
2013-06-05 16:42:00,100.0,53.0,29.81,NW,315,0.0,4.0,21,0.00,,,0.00,,2013-06-05 23:42:00,
2013-06-05 16:53:00,100.0,53.0,29.81,North,0,4.0,4.0,21,0.00,,,0.00,,2013-06-05 23:53:00,
2013-06-05 17:02:00,100.0,53.0,29.81,North,0,4.0,4.0,21,0.00,,,0.00,,2013-06-06 00:02:00,
2013-06-05 17:22:00,100.0,53.0,29.80,WNW,282,3.0,4.0,21,0.00,,,0.00,,2013-06-06 00:22:00,
2013-06-05 17:32:00,99.0,52.0,29.80,NNW,338,0.0,0.0,21,0.00,,,0.00,,2013-06-06 00:32:00,
2013-06-05 17:42:00,99.0,52.0,29.80,NNW,338,0.0,0.0,21,0.00,,,0.00,,2013-06-06 00:42:00,
2013-06-05 17:52:00,95.0,49.0,29.79,NNW,338,4.0,6.0,21,0.00,,,0.00,,2013-06-06 00:52:00,
2013-06-05 18:02:00,95.0,49.0,29.79,NNW,338,4.0,6.0,21,0.00,,,0.00,,2013-06-06 01:02:00,
2013-06-05 18:22:00,93.0,52.0,29.79,NE,45,2.0,2.0,25,0.00,,,0.00,,2013-06-06 01:22:00,
2013-06-05 18:32:00,92.0,52.0,29.79,North,0,3.0,3.0,26,0.00,,,0.00,,2013-06-06 01:32:00,
2013-06-05 18:42:00,92.0,52.0,29.79,North,0,3.0,3.0,26,0.00,,,0.00,,2013-06-06 01:42:00,
2013-06-05 18:52:00,91.0,51.0,29.79,North,0,2.0,6.0,26,0.00,,,0.00,,2013-06-06 01:52:00,
2013-06-05 19:01:00,91.0,51.0,29.79,North,0,2.0,6.0,26,0.00,,,0.00,,2013-06-06 02:01:00,
2013-06-05 19:22:00,89.0,52.0,29.79,North,0,0.0,2.0,28,0.00,,,0.00,,2013-06-06 02:22:00,
2013-06-05 19:32:00,89.0,53.0,29.79,North,0,2.0,2.0,29,0.00,,,0.00,,2013-06-06 02:32:00,
2013-06-05 19:42:00,89.0,53.0,29.79,North,0,2.0,2.0,29,0.00,,,0.00,,2013-06-06 02:42:00,
2013-06-05 19:52:00,89.0,53.0,29.79,North,0,2.0,2.0,29,0.00,,,0.00,,2013-06-06 02:52:00,
2013-06-05 20:02:00,88.0,54.0,29.79,North,0,0.0,4.0,31,0.00,,,0.00,,2013-06-06 03:02:00,
2013-06-05 20:12:00,88.0,54.0,29.79,North,0,0.0,4.0,31,0.00,,,0.00,,2013-06-06 03:12:00,
2013-06-05 20:22:00,86.0,53.0,29.80,North,0,1.0,6.0,32,0.00,,,0.00,,2013-06-06 03:22:00,
2013-06-05 20:33:00,85.0,52.0,29.81,NNW,338,2.0,7.0,32,0.00,,,0.00,,2013-06-06 03:33:00,
2013-06-05 20:43:00,85.0,52.0,29.81,NNW,338,2.0,7.0,32,0.00,,,0.00,,2013-06-06 03:43:00,
2013-06-05 20:52:00,82.0,51.0,29.81,NNW,338,0.0,0.0,34,0.00,,,0.00,,2013-06-06 03:52:00,
2013-06-05 21:02:00,81.0,51.0,29.81,NW,315,2.0,2.0,35,0.00,,,0.00,,2013-06-06 04:02:00,
2013-06-05 21:13:00,81.0,51.0,29.81,NW,315,2.0,2.0,35,0.00,,,0.00,,2013-06-06 04:13:00,
2013-06-05 21:23:00,80.0,51.0,29.81,NNE,23,0.0,0.0,36,0.00,,,0.00,,2013-06-06 04:23:00,
2013-06-05 21:33:00,78.0,50.0,29.81,North,0,0.0,0.0,37,0.00,,,0.00,,2013-06-06 04:33:00,
2013-06-05 21:42:00,78.0,50.0,29.82,North,0,0.0,0.0,38,0.00,,,0.00,,2013-06-06 04:42:00,
2013-06-05 21:53:00,78.0,50.0,29.82,North,0,0.0,0.0,38,0.00,,,0.00,,2013-06-06 04:53:00,
2013-06-05 22:02:00,77.0,51.0,29.82,North,0,0.0,0.0,40,0.00,,,0.00,,2013-06-06 05:02:00,
2013-06-05 22:12:00,77.0,51.0,29.82,North,0,0.0,0.0,40,0.00,,,0.00,,2013-06-06 05:12:00,
2013-06-05 22:22:00,75.0,50.0,29.84,NNW,338,0.0,0.0,42,0.00,,,0.00,,2013-06-06 05:22:00,
2013-06-05 22:32:00,75.0,50.0,29.84,NNW,338,0.0,0.0,42,0.00,,,0.00,,2013-06-06 05:32:00,
2013-06-05 22:42:00,75.0,50.0,29.84,NNW,338,0.0,0.0,42,0.00,,,0.00,,2013-06-06 05:42:00,
2013-06-05 22:52:00,74.0,51.0,29.84,NNE,23,0.0,0.0,44,0.00,,,0.00,,2013-06-06 05:52:00,
2013-06-05 23:02:00,72.0,50.0,29.84,NNW,338,0.0,4.0,46,0.00,,,0.00,,2013-06-06 06:02:00,
2013-06-05 23:12:00,72.0,50.0,29.84,NNW,338,0.0,4.0,46,0.00,,,0.00,,2013-06-06 06:12:00,
2013-06-05 23:22:00,72.0,50.0,29.84,NNW,338,0.0,4.0,46,0.00,,,0.00,,2013-06-06 06:22:00,
2013-06-05 23:32:00,70.0,50.0,29.85,NNW,338,2.0,3.0,49,0.00,,,0.00,,2013-06-06 06:32:00,
2013-06-05 23:42:00,70.0,50.0,29.85,NNW,338,2.0,3.0,49,0.00,,,0.00,,2013-06-06 06:42:00,
2013-06-05 23:52:00,69.0,50.0,29.85,South,180,0.0,0.0,50,0.00,,,0.00,,2013-06-06 06:52:00,